Regional Weather Roundup
Issued by NWS Huntsville, AL

Home | Current Version | Previous Version | Text Only | Print | Product List | Glossary On
Versions: 1 2 3 4 5 6 7 8 9 10 11 12 13 14 15 16 17 18 19 20 21 22 23 24 25 26 27 28 29 30 31 32 33 34 35 36 37 38 39 40 41 42 43 44 45 46 47 48 49 50
000
ASUS44 KHUN 061810
RWRHUN

WEATHER ROUNDUP FOR THE TENNESSEE VALLEY
NATIONAL WEATHER SERVICE HUNTSVILLE AL
1200 PM CST FRI MAR 06 2015

ALZ001>004-061900-
NORTHWEST ALABAMA

CITY           SKY/WX    TMP DP  RH WIND       PRES   REMARKS
COURTLAND HCN    N/A     30 N/A N/A MISG        N/A
RUSSELLVILLE     N/A     32 N/A N/A MISG        N/A
SHOALS AIRPORT FAIR      34  16  47 NW3       30.56F
6HR MIN TEMP:  16; 6HR MAX TEMP:  34;

$$

ALZ005>007-016-061900-
NORTH CENTRAL ALABAMA

CITY           SKY/WX    TMP DP  RH WIND       PRES   REMARKS
CULLMAN AG STN   N/A     32 N/A N/A N6          N/A  WCI  26
DECATUR AP     FAIR      30  16  56 N8        30.56S WCI  22
6HR MIN TEMP:  15; 6HR MAX TEMP:  30;

HUNTSVILLE AP  FAIR      33  18  53 VRB5      30.54F WCI  29
6HR MIN TEMP:  17; 6HR MAX TEMP:  33;

HUN NWS/UAH      N/A     32  19  60 NW5         N/A  WCI  27
MERIDIANVILLE  FAIR      30  19  64 N6        30.54S WCI  24
REDSTONE ARSN  FAIR      30  20  67 N9        30.53F WCI  22
VINEMONT AP    FAIR      30  17  56 N7        30.52F WCI  24
$$

ALZ008>010-061900-
NORTHEAST ALABAMA

CITY           SKY/WX    TMP DP  RH WIND       PRES   REMARKS
ALBERTVILLE    CLOUDY    34  28  80 W7        30.47F HAZE    WCI  28
FORT PAYNE     CLOUDY    36  21  55 CALM      30.47F
SCOTTSBORO AP  FAIR      37  19  48 NE3       30.51F
SCOTTSBORO HCN   N/A     36 N/A N/A MISG        N/A
VALLEY HEAD      N/A     36 N/A N/A MISG        N/A
$$

TNZ076-096-097-061900-
SOUTHEASTERN MIDDLE TENNESSEE

CITY           SKY/WX    TMP DP  RH WIND       PRES   REMARKS
TULLAHOMA      SUNNY     28  14  54 N5          N/A  WCI  23
WINCHESTER     SUNNY     28  19  69 CALM      30.52S
$$

...SURROUNDING SITES...

CITY           SKY/WX    TMP DP  RH WIND       PRES   REMARKS
ATLANTA        PTSUNNY   45  32  60 NW7       30.42S
ANNISTON       FAIR      40  27  59 VRB5      30.49F
BIRMINGHAM     FAIR      38  23  55 VRB6      30.52F WCI  33
CHATTANOOGA    FAIR      36  18  48 VRB5      30.50F WCI  32
CORINTH        FAIR      34  14  44 NW8       30.57F WCI  27
DALTON         FAIR      36  28  75 CALM      30.48F
GADSDEN        CLOUDY    36  21  55 CALM      30.49F
GOLDEN TRNGL   SUNNY     37  23  56 N5        30.56F WCI  34
HALEYVILLE       N/A     32  16  52 VRB7      30.55S WCI  26
JACKSON TN     FAIR      28  11  48 NW3       30.58F
LEWISBURG      FAIR      28  17  63 VRB5      30.55F WCI  23
MEMPHIS        FAIR      32  11  41 CALM      30.59F
MURFREESBORO   FAIR      28  17  63 N5        30.56F WCI  23
NASHVILLE      FAIR      30  16  56 CALM      30.58F
OXFORD MS      FAIR      34  10  37 E6        30.58F WCI  29
ROME           FAIR      39  26  59 VRB3      30.47F
SAVANNAH       SUNNY     30  12  47 VRB5      30.57F WCI  25
TUPELO         FAIR      34  14  43 NE9       30.57F WCI  27
TUSCALOOSA     FAIR      40  17  39 NE7       30.55F
$$

...GULF COAST WEATHER...

CITY           SKY/WX    TMP DP  RH WIND       PRES   REMARKS
GULFPORT       FAIR      48  14  25 N13G21    30.45F
PASCAGOULA     FAIR      49  14  24 N16       30.45F
MOBILE         PTSUNNY   47  13  25 N18G24    30.45F
GULF SHORES    FAIR      45  20  37 N13G21    30.42F
PENSACOLA      PTSUNNY   48  23  37 N12G20    30.40F
DESTIN         FAIR      49  31  49 N12G21    30.39F
PANAMA CITY    FAIR      52  38  57 NE10G17   30.35F
APPALACHICOLA  FAIR      61  40  45 N10       30.32F
$$




USA.gov is the U.S. government's official web portal to all federal, state and local government web resources and services.